This is the latest recevied weather packets stored in our database for station/object N6WDO. If no packets are shown the sender has not sent any weather packets the latest 10 day(s).
| Time | Temp. | Humidity | Pressure | Rain* | Wind** | Luminosity | Snow |
|---|---|---|---|---|---|---|---|
| 1777906041 | 9.44° C | 93% | 1015.7 hPa | 0 mm | - | 36 W/m² | - |
| 1777905738 | 9.44° C | 93% | 1016 hPa | 0 mm | - | 32 W/m² | - |
| 1777905435 | 9.44° C | 92% | 1015.8 hPa | 0 mm | - | 19 W/m² | - |
| 1777905133 | 9.44° C | 93% | 1016 hPa | 0 mm | - | 12 W/m² | - |
| 1777904829 | 9.44° C | 92% | 1015.9 hPa | 0 mm | - | 11 W/m² | - |
| 1777904527 | 9.44° C | 92% | 1015.8 hPa | 0 mm | - | 8 W/m² | - |
| 1777904223 | 9.44° C | 92% | 1016 hPa | 0 mm | - | 7 W/m² | - |
| 1777903920 | 9.44° C | 91% | 1016 hPa | 0 mm | - | 8 W/m² | - |
| 1777903617 | 9.44° C | 91% | 1016.2 hPa | 0 mm | - | 8 W/m² | - |
| 1777903312 | 9.44° C | 91% | 1016 hPa | 0 mm | - | 8 W/m² | - |
| 1777903010 | 9.44° C | 90% | 1015.7 hPa | 0 mm | - | 7 W/m² | - |
| 1777902706 | 9.44° C | 90% | 1015.9 hPa | 0 mm | - | 5 W/m² | - |
| 1777902404 | 9.44° C | 90% | 1016 hPa | 0 mm | - | 4 W/m² | - |
| 1777902100 | 10° C | 89% | 1015.6 hPa | 0 mm | - | 4 W/m² | - |
| 1777901799 | 10° C | 89% | 1015.6 hPa | 0 mm | - | 3 W/m² | - |
| 1777901495 | 10° C | 89% | 1015.5 hPa | 0 mm | - | 3 W/m² | - |
| 1777901193 | 10° C | 87% | 1015.5 hPa | 0 mm | - | 2 W/m² | - |
| 1777900890 | 10° C | 87% | 1015.3 hPa | 0 mm | - | 1 W/m² | - |
| 1777900588 | 10° C | 86% | 1015.5 hPa | 0 mm | - | 1 W/m² | - |
| 1777900285 | 10° C | 86% | 1015.3 hPa | 0 mm | - | 1 W/m² | - |
| 1777899981 | 10.56° C | 84% | 1015.2 hPa | 0 mm | - | 1 W/m² | - |
| 1777899678 | 10.56° C | 83% | 1015.2 hPa | 0 mm | - | 0 W/m² | - |
| 1777899376 | 10.56° C | 82% | 1015.2 hPa | 0 mm | - | 0 W/m² | - |
| 1777899073 | 10.56° C | 82% | 1015.1 hPa | 0 mm | - | 0 W/m² | - |
| 1777898769 | 10.56° C | 82% | 1014.9 hPa | 0 mm | - | 0 W/m² | - |
* Rain latest hour (hover to see other rain measurements)
** Current wind speed in m/s (hover to see current wind gust speed)